VZLUSAT-1 (42790 NORAD) Tracking and Keplerian Element Data

This shows tracking and keplerian element data for the satellite.

Feedback or suggestion? Click here.




ElementValue
Catalog42790
NameVZLUSAT-1
Epoch Orbit30123
Epoch Day324.67868469
Epoch Year2022
RAAN7.2259
Inclination97.1824
Eccentricity0.0008727
Argument of Perigee108.2568
Mean Anonmoly251.9629
Mean Motion15.40834139
Decay Rate0.00024449
L11 42790U 17036AB 22324.67868469 .00024449 00000+0 59631-3 0 9995
L22 42790 97.1824 7.2259 0008727 108.2568 251.9629 15.40834139301235



Live tracking and technical data element details for VZLUSAT-1 (NORAD 42790). VZLUSAT-1 can be tracked NOW for your location showing map with azimuth and elevation plus other details from your city location.







IsCatalogInMostPopularTable: catalog: 42790, numindb: 471
Update: records affected: 1



GetName: 42790 VZLUSAT-1

Hit Count: updated at: Fri, 02 Dec 2022 12:56:11 GMT